Oster - Challenge Famenne Ardenne

Le jogging d'Oster (4.20 km)

Classement complet

Le classement original se trouve sur : https://sites.google.com/view/chronofirst/
CHALLENGE FAMENNE ARDENNE
LE JOGGING D'OSTER
DISTANCE : 4.20 km
vendredi 07 juillet 2017
 
Place NOM Catég. pl/Cat. Temps Temps/km Vitesse
1 Yoan GOLINVEAU S 1 00:16:29 03:55 15.29
2 Nicolas MARON EH 1 00:17:04 04:04 14.77
3 Edwin VANDERVORST S 2 00:17:30 04:10 14.40
4 Antoine ROUSSELLE S 3 00:19:12 04:34 13.13
5 Nicolas NOE V1 1 00:19:38 04:40 12.84
6 Marie-Laure NOE XXX   00:19:39 04:41 12.82
7 Kévin BARBETTE S 4 00:19:55 04:45 12.65
8 Martin LENOIR EH 2 00:20:03 04:46 12.57
9 Alexandre GEORGES S 5 00:21:37 05:09 11.66
10 Emeline EVRARD EF 1 00:21:49 05:12 11.55
11 Ludovic MINET S 6 00:22:38 05:23 11.13
12 Rémi LECOMTE EH 3 00:22:45 05:25 11.08
13 Mathéo DELOUZE XXX   00:23:06 05:30 10.91
14 Pierre DESONNIAUX S 7 00:24:21 05:48 10.35
15 Justin CORNELIS EH 4 00:24:28 05:50 10.30
16 Clémence JALHAY XXX   00:24:39 05:52 10.22
17 Pascal JALHAY V1 2 00:24:39 05:52 10.22
18 Grégory GERARD S 8 00:24:52 05:55 10.13
19 Tom NAGY XXX   00:26:01 06:12 9.69
20 Cecile KAIRIS A1 1 00:26:03 06:12 9.67
21 Lara BERNIER XXX   00:26:38 06:20 9.46
22 Maurice BERNIER S 9 00:26:38 06:20 9.46
23 Sylviane RASKIN A1 2 00:26:59 06:25 9.34
24 Célia PETIT EF 2 00:27:21 06:31 9.21
25 Emma DEVILLE EF 3 00:27:36 06:34 9.13
26 Nadège WALLEMACQ D 1 00:27:45 06:36 9.08
27 Noé MOYEN XXX   00:27:56 06:39 9.02
28 Jonathan MOYEN S 10 00:27:56 06:39 9.02
29 Isaline HOUET EF 4 00:28:59 06:54 8.69
30 Isaline LECOMTE XXX   00:29:12 06:57 8.63
31 Alexia MONFORT D 2 00:29:42 07:04 8.48
32 Megann PHILIPPART EF 5 00:29:57 07:08 8.41
33 Noëlla BURNOTTE A2 1 00:30:34 07:17 8.24
34 Nathalie GILLARD A2 2 00:30:36 07:17 8.24
35 Denis PIERRET V1 3 00:31:42 07:33 7.95
36 Gwen SERVATY D 3 00:32:09 07:39 7.84
37 Régine EVRARD A2 3 00:32:11 07:40 7.83
38 Camille PAHAUT EF 6 00:32:24 07:43 7.78
39 Géraldine CAPITAINE A1 3 00:32:26 07:43 7.77
40 Laura ROBERTY D 4 00:32:48 07:49 7.68
41 Martine CHARLIER A3 1 00:32:50 07:49 7.68
42 José ROBERTY V2 1 00:33:17 07:55 7.57
43 Claudia TONACHELLA A3 2 00:33:47 08:03 7.46
44 Léo GUILLAUME EH 5 00:34:30 08:13 7.30
45 Cécile PETIT A1 4 00:34:34 08:14 7.29
46 Morgane FERY D 5 00:35:26 08:26 7.11
47 Ashley SAMLETTE XXX   00:35:27 08:26 7.11
48 Christine BODSON A2 4 00:35:56 08:33 7.01
49 Sandra LESENFANTS D 6 00:36:59 08:48 6.81
50 Cynthia LESENFANTS D 7 00:36:59 08:48 6.81
51 Nancy LEJEUNE A2 5 00:43:21 10:19 5.81
             
Nos dernières videos